This is the latest recevied weather packets stored in our database for station/object N6OIM. If no packets are shown the sender has not sent any weather packets the latest 10 day(s).
| Time | Temp. | Humidity | Pressure | Rain* | Wind** | Luminosity | Snow |
|---|---|---|---|---|---|---|---|
| 1777583310 | 27.78° C | 42% | 1010.6 hPa | 0 mm | - | - | - |
| 1777582997 | 27.22° C | 42% | 1010.6 hPa | 0 mm | - | - | - |
| 1777582706 | 27.22° C | 41% | 1010.6 hPa | 0 mm | - | - | - |
| 1777582398 | 27.22° C | 44% | 1010.7 hPa | 0 mm | - | - | - |
| 1777582106 | 26.67° C | 43% | 1010.8 hPa | 0 mm | - | - | - |
| 1777581815 | 26.67° C | 44% | 1010.7 hPa | 0 mm | - | - | - |
| 1777581504 | 26.67° C | 40% | 1010.7 hPa | 0 mm | - | - | - |
| 1777581212 | 26.67° C | 43% | 1010.8 hPa | 0 mm | - | - | - |
| 1777580901 | 26.67° C | 44% | 1011 hPa | 0 mm | - | - | - |
| 1777580612 | 26.11° C | 43% | 1011 hPa | 0 mm | - | - | - |
| 1777580302 | 26.11° C | 44% | 1011 hPa | 0 mm | - | - | - |
| 1777580011 | 26.11° C | 43% | 1011 hPa | 0 mm | - | - | - |
| 1777579703 | 26.11° C | 44% | 1011 hPa | 0 mm | - | - | - |
| 1777579411 | 25.56° C | 43% | 1011 hPa | 0 mm | - | - | - |
| 1777579101 | 25.56° C | 43% | 1011.1 hPa | 0 mm | - | - | - |
| 1777578810 | 25.56° C | 42% | 1011.2 hPa | 0 mm | - | - | - |
| 1777578499 | 25.56° C | 44% | 1011.2 hPa | 0 mm | - | - | - |
| 1777578208 | 25.56° C | 46% | 1011.5 hPa | 0 mm | - | - | - |
| 1777577897 | 25.56° C | 46% | 1011.5 hPa | 0 mm | - | - | - |
| 1777577609 | 25° C | 45% | 1011.4 hPa | 0 mm | - | - | - |
| 1777577299 | 25° C | 45% | 1011.6 hPa | 0 mm | - | - | - |
| 1777577012 | 25° C | 47% | 1011.6 hPa | 0 mm | - | - | - |
| 1777576699 | 25° C | 46% | 1011.7 hPa | 0 mm | - | - | - |
| 1777576407 | 24.44° C | 47% | 1011.8 hPa | 0 mm | - | - | - |
| 1777576116 | 24.44° C | 48% | 1011.8 hPa | 0 mm | - | - | - |
* Rain latest hour (hover to see other rain measurements)
** Current wind speed in m/s (hover to see current wind gust speed)